User: anonymous   Login
Location: Newark
(49.3000°N, 9.4667°E)
Time: 19:08:54
(UTC+00:00)
Language:

A-11 Canister half - Orbit

View from above orbital plane
View from above orbital plane
View from above satellite
View from above satellite

Ground track
Ground track

The orbit data is extracted from the following two-line orbital elements,

1    53U 60009E   19145.77231323 -.00000053 +00000-0 +31900-3 0  9996
2    53 047.2784 017.5952 0099952 013.0517 347.2826 12.17228035621228
Epoch (UTC): 25 May 2019 18:32:07
Eccentricity: 0.0099952
inclination: 47.2784°
perigee height: 1525 km
apogee height: 1684 km
right ascension of ascending node: 17.5952°
argument of perigee: 13.0517°
revolutions per day: 12.17228035
mean anomaly at epoch: 347.2826°
orbit number at epoch: 62122

The dashed part of the orbit path shows where the satellite is in the earth's shadow,  

DLR